This is the latest recevied weather packets stored in our database for station/object K4ZZR. If no packets are shown the sender has not sent any weather packets the latest 10 day(s).
| Time | Temp. | Humidity | Pressure | Rain* | Wind** | Luminosity | Snow |
|---|---|---|---|---|---|---|---|
| 1777992558 | 25.56° C | 81% | 1015.8 hPa | 0 mm | - | 464 W/m² | - |
| 1777992256 | 25° C | 81% | 1015.8 hPa | 0 mm | - | 867 W/m² | - |
| 1777991953 | 25.56° C | 81% | 1016 hPa | 0 mm | - | 583 W/m² | - |
| 1777991651 | 25° C | 80% | 1015.7 hPa | 0 mm | - | 389 W/m² | - |
| 1777991347 | 25° C | 81% | 1016 hPa | 0 mm | - | 305 W/m² | - |
| 1777991045 | 25° C | 81% | 1015.8 hPa | 0 mm | - | 269 W/m² | - |
| 1777990742 | 25° C | 82% | 1015.6 hPa | 0 mm | - | 460 W/m² | - |
| 1777990439 | 25° C | 81% | 1015.7 hPa | 0 mm | - | 374 W/m² | - |
| 1777989832 | 25° C | 81% | 1015.5 hPa | 0 mm | - | 272 W/m² | - |
| 1777989529 | 25° C | 81% | 1015.6 hPa | 0 mm | - | 517 W/m² | - |
| 1777989225 | 25° C | 81% | 1015.5 hPa | 0 mm | - | 209 W/m² | - |
| 1777988922 | 25° C | 82% | 1015.5 hPa | 0 mm | - | 299 W/m² | - |
| 1777988619 | 25° C | 81% | 1015.6 hPa | 0 mm | - | 178 W/m² | - |
| 1777988315 | 25° C | 79% | 1015.4 hPa | 0 mm | - | 220 W/m² | - |
| 1777988012 | 25.56° C | 80% | 1015.2 hPa | 0 mm | - | 426 W/m² | - |
| 1777987707 | 25° C | 81% | 1015.3 hPa | 0 mm | - | 441 W/m² | - |
| 1777987405 | 25.56° C | 81% | 1015.3 hPa | 0 mm | - | 509 W/m² | - |
| 1777987102 | 25° C | 82% | 1015.4 hPa | 0 mm | - | 303 W/m² | - |
| 1777986800 | 25° C | 82% | 1015.2 hPa | 0 mm | - | 419 W/m² | - |
| 1777986497 | 24.44° C | 84% | 1015.2 hPa | 0 mm | - | 134 W/m² | - |
| 1777986195 | 24.44° C | 84% | 1015.3 hPa | 0 mm | - | 137 W/m² | - |
| 1777985892 | 24.44° C | 84% | 1015.6 hPa | 0 mm | - | 115 W/m² | - |
| 1777985589 | 24.44° C | 84% | 1015.4 hPa | 0 mm | - | 153 W/m² | - |
| 1777985286 | 24.44° C | 85% | 1015.4 hPa | 0 mm | - | 116 W/m² | - |
| 1777984983 | 24.44° C | 85% | 1015.2 hPa | 0 mm | - | 117 W/m² | - |
* Rain latest hour (hover to see other rain measurements)
** Current wind speed in m/s (hover to see current wind gust speed)